Regional Weather Roundup
Issued by NWS

Home | Current Version | Previous Version | Text Only | Print | Product List | Glossary Off
Versions: 1 2 3 4 5 6 7 8 9 10 11 12 13 14 15 16 17 18 19 20 21 22 23 24 25 26 27 28 29 30 31 32 33 34 35 36 37 38 39 40 41 42 43 44 45 46 47 48 49 50

000
ASUS43 KLSX 231307
RWRMO

WEATHER SUMMARY FOR MISSOURI
NATIONAL WEATHER SERVICE SPRINGFIELD MO
700 AM CST SUN NOV 23 2014

NOTE: "FAIR" INDICATES FEW OR NO CLOUDS BELOW 12,000 FEET WITH NO
       SIGNIFICANT WEATHER AND/OR OBSTRUCTIONS TO VISIBILITY.
       CURRENT SKY AND/OR WEATHER CONDITIONS ARE NOT AVAILABLE FOR
       CHILLICOTHE AND FARMINGTON.

MOZ001>031-035>038-043-044-053-054-231400-
...NORTHERN AND WESTERN MISSOURI...

CITY           SKY/WX    TMP DP  RH WIND       PRES   REMARKS
KANSAS CTY INT CLOUDY    53  51  93 S13       29.52F
KANSAS C DTWN  CLOUDY    55  52  89 S8        29.52F
ST JOSEPH      CLOUDY    54  51  90 S8        29.52F
CHILLICOTHE      N/A     53  51  93 SE7       29.57F
KIRKSVILLE     RAIN      51  50  96 SE10      29.60F FOG

$$
MOZ066>068-077>081-088>096-101>105-231400-
...SOUTHWEST MISSOURI...

CITY           SKY/WX    TMP DP  RH WIND       PRES   REMARKS
SPRINGFIELD    CLOUDY    54  51  90 SE16      29.57F
JOPLIN         CLOUDY    58  55  90 S10       29.56F

$$
MOZ032>034-039>042-045>050-055>058-069>072-231400-
...CENTRAL MISSOURI...

CITY           SKY/WX    TMP DP  RH WIND       PRES   REMARKS
COLUMBIA       HVY RAIN  52  51  97 SE15      29.63F FOG
JEFFERSON CITY RAIN      52  50  93 SE8       29.64F FOG
ROLLA          LGT RAIN  52  49  89 SE12      29.65F FOG
SEDALIA        LGT RAIN  55  52  89 S16       29.58F
WHITEMAN AFB   CLOUDY    55  53  93 S13       29.55F
WARRENSBURG    DRIZZLE   54  52  94 SE9       29.55F
OSAGE BEACH    CLOUDY    54  50  87 SE7       29.61F

$$
MOZ051-052-059>065-231400-
...EAST CENTRAL MISSOURI...

CITY           SKY/WX    TMP DP  RH WIND       PRES   REMARKS
ST LOUIS INTL  CLOUDY    54  45  71 SE12      29.73F
SPIRIT OF STL  CLOUDY    55  48  77 SE6       29.71F
ST CHARLES     CLOUDY    48  45  89 E7        29.72F

$$
MOZ072>076-082>087-097>100-106>115-231400-
...SOUTH CENTRAL AND SOUTHEAST MISSOURI...

CITY           SKY/WX    TMP DP  RH WIND       PRES   REMARKS
CAPE GIRARDEAU CLOUDY    56  51  84 SE10      29.78S
FARMINGTON     CLOUDY    54  50  87 E12       29.75F
POPLAR BLUFF   CLOUDY    55  49  80 E8        29.72F
WEST PLAINS    HVY RAIN  52  50  93 SE9G17    29.67F FOG

$$



USA.gov is the U.S. government's official web portal to all federal, state and local government web resources and services.